Location: Wald
(31.7579°N, 86.6655°W)
Time: 00:57:19
(UTC+00:00)

SL-27 R/B - Pass Details

Date: 14 July 2020
Orbit: 420 x 470 km, 74.7° (Epoch: 12 August)

Event Time Altitude Azimuth Distance (km) Brightness Sun altitude
Exits shadow 08:35:07 31° 101° (ESE) 827 3.9 -24.0°
Maximum altitude 08:35:08 31° 101° (ESE) 827 3.9 -24.0°
Drops below altitude 10° 08:38:14 10° 38° (NE) 1,583 6.3 -23.5°
Sets 08:40:27 0° 28° (NNE) 2,449 7.4 -23.2°
